Location: Brantley
(31.5822°N, 86.2569°W)
Time: 00:30:26
(UTC+00:00)

Vanguard 3 - Pass Details

Date: 17 February 2026
Orbit: 507 x 3205 km, 33.4° (Epoch: 9 March)

Event Time Altitude Azimuth Distance (km) Brightness Sun altitude
Rises 18:48:24 0° 211° (SSW) 6,859 12.6 45.1°
Reaches altitude 10° 18:54:22 10° 202° (SSW) 5,519 12.4 44.7°
Maximum altitude 19:06:25 28° 152° (SSE) 3,311 11.1 43.7°
Drops below altitude 10° 19:14:33 10° 98° (E) 3,680 10.5 43.0°
Sets 19:17:33 0° 86° (E) 4,307 10.6 42.7°
